Weather History for PASL - September, 2013

Change the Weather History Date:

Thursday, September 12, 2013

  Actual Average Record
Temperature  
Mean Temperature 42 °F -  
Max Temperature 50 °F 52 °F 62 °F (1999)
Min Temperature 35 °F 35 °F 33 °F (1999)
Degree Days  
Heating Degree Days 22    
Moisture  
Dew Point 42 °F    
Average Humidity 90    
Maximum Humidity 100    
Minimum Humidity 82    
Precipitation  
Precipitation 0.00 in - - ()
Sea Level Pressure  
Sea Level Pressure 29.84 in    
Wind  
Wind Speed 0 mph (North)    
Max Wind Speed 4 mph    
Max Gust Speed -    
Visibility 10 miles    
Events      
Averages and records for this station are not official NWS values.
T = Trace of Precipitation, MM = Missing Value Source: NWS Daily Summary

Daily Weather History Graph

Daily Weather History Graph

Search for Another Location

Airport or City:

Trip Planner

Search our weather history database for the weather conditions in past years. The results will help you decide how hot, cold, wet, or windy it might be!

Date:

Astronomy

Sep. 12, 2013 Rise Set
Actual Time 7:48 AM AKDT 8:59 PM AKDT
Civil Twilight 7:02 AM AKDT 9:44 PM AKDT
Nautical Twilight 6:06 AM AKDT 10:40 PM AKDT
Astronomical Twilight 4:58 AM AKDT 11:47 PM AKDT
Moon 5:25 PM AKDT (9/12) No Moon Set
Length of Visible Light 14h 41m
Length of Day
13h 11m
First Quarter, 51% of the Moon is Illuminated
Sep 12
First Quarter
Sep 19
Full
Sep 26
Last Quarter
Oct 4
New
Oct 11
First Quarter

Hourly Weather History & Observations

Time (AKDT) Temp. Windchill Dew Point Humidity Pressure Visibility Wind Dir Wind Speed Gust Speed Precip Events Conditions
12:36 AM 37.4 °F - 35.6 °F 93% 29.87 in 10.0 mi Calm Calm - N/A   Mostly Cloudy
12:56 AM 37.4 °F - 35.6 °F 93% 29.87 in 10.0 mi Calm Calm - N/A   Partly Cloudy
1:16 AM 35.6 °F - 33.8 °F 93% 29.87 in 10.0 mi Calm Calm - N/A   Clear
1:56 AM 37.4 °F - 35.6 °F 93% 29.87 in 10.0 mi Calm Calm - N/A   Overcast
2:16 AM 37.4 °F - 35.6 °F 93% 29.87 in 10.0 mi Calm Calm - N/A   Overcast
2:36 AM 39.2 °F - 37.4 °F 93% 29.87 in 10.0 mi Calm Calm - N/A   Overcast
2:56 AM 39.2 °F - 37.4 °F 93% 29.87 in 10.0 mi Calm Calm - N/A   Overcast
3:16 AM 39.2 °F - 37.4 °F 93% 29.87 in 10.0 mi Calm Calm - N/A   Overcast
3:36 AM 39.2 °F - 37.4 °F 93% 29.87 in 10.0 mi Calm Calm - N/A   Overcast
3:56 AM 39.2 °F - 37.4 °F 93% 29.86 in 10.0 mi Calm Calm - N/A   Overcast
4:16 AM 39.2 °F - 37.4 °F 93% 29.86 in 10.0 mi Calm Calm - N/A   Overcast
4:36 AM 39.2 °F - 37.4 °F 93% 29.86 in 10.0 mi Calm Calm - N/A   Overcast
5:16 AM 41.0 °F - 39.2 °F 93% 29.86 in 10.0 mi Calm Calm - N/A   Overcast
5:36 AM 41.0 °F - 39.2 °F 93% 29.86 in 10.0 mi Calm Calm - N/A   Overcast
5:56 AM 42.8 °F - 39.2 °F 87% 29.86 in 10.0 mi Calm Calm - N/A   Overcast
6:16 AM 42.8 °F - 41.0 °F 93% 29.86 in 10.0 mi Calm Calm - N/A   Overcast
6:36 AM 42.8 °F - 39.2 °F 87% 29.86 in 10.0 mi Calm Calm - N/A   Overcast
6:56 AM 42.8 °F - 39.2 °F 87% 29.85 in 10.0 mi Calm Calm - N/A   Overcast
7:16 AM 42.8 °F - 39.2 °F 87% 29.85 in 10.0 mi Calm Calm - N/A   Overcast
7:36 AM 42.8 °F - 39.2 °F 87% 29.85 in 10.0 mi Calm Calm - N/A   Overcast
7:56 AM 42.8 °F - 39.2 °F 87% 29.85 in 10.0 mi Calm Calm - N/A   Overcast
8:16 AM 42.8 °F - 39.2 °F 87% 29.85 in 10.0 mi Calm Calm - N/A   Mostly Cloudy
8:36 AM 42.8 °F - 39.2 °F 87% 29.85 in 10.0 mi Calm Calm - N/A   Scattered Clouds
8:56 AM 42.8 °F - 39.2 °F 87% 29.85 in 10.0 mi Calm Calm - N/A   Mostly Cloudy
9:16 AM 42.8 °F - 39.2 °F 87% 29.85 in 10.0 mi Calm Calm - N/A   Overcast
9:36 AM 42.8 °F - 39.2 °F 87% 29.85 in 10.0 mi Calm Calm - N/A   Overcast
9:56 AM 42.8 °F - 41.0 °F 93% 29.85 in 10.0 mi Calm Calm - N/A   Overcast
10:16 AM 44.6 °F - 41.0 °F 87% 29.85 in 10.0 mi Calm Calm - N/A   Overcast
10:36 AM 44.6 °F - 41.0 °F 87% 29.85 in 10.0 mi Calm Calm - N/A   Mostly Cloudy
10:56 AM 44.6 °F 43.1 °F 41.0 °F 87% 29.85 in 10.0 mi SE 3.5 mph - N/A   Scattered Clouds
11:16 AM 46.4 °F - 42.8 °F 87% 29.85 in 10.0 mi Calm Calm - N/A   Mostly Cloudy
12:16 PM 46.4 °F 45.2 °F 42.8 °F 87% 29.85 in 8.0 mi SW 3.5 mph - N/A   Overcast
12:36 PM 46.4 °F - 42.8 °F 87% 29.85 in 10.0 mi Calm Calm - N/A   Overcast
12:56 PM 46.4 °F - 42.8 °F 87% 29.84 in 10.0 mi Calm Calm - N/A   Overcast
1:16 PM 48.2 °F - 42.8 °F 82% 29.85 in 10.0 mi Calm Calm - N/A   Overcast
1:36 PM 48.2 °F - 42.8 °F 82% 29.85 in 10.0 mi Calm Calm - N/A   Overcast
1:56 PM 48.2 °F - 42.8 °F 82% 29.84 in 10.0 mi Calm Calm - N/A   Overcast
2:16 PM 48.2 °F - 42.8 °F 82% 29.84 in 10.0 mi Calm Calm - N/A   Overcast
2:56 PM 48.2 °F - 42.8 °F 82% 29.84 in 10.0 mi Calm Calm - N/A   Overcast
3:16 PM 48.2 °F - 42.8 °F 82% 29.83 in 8.0 mi Calm Calm - N/A   Overcast
3:36 PM 48.2 °F - 44.6 °F 87% 29.83 in 10.0 mi Calm Calm - N/A   Overcast
3:56 PM 48.2 °F - 44.6 °F 87% 29.83 in 9.0 mi Calm Calm - N/A   Overcast
4:36 PM 50.0 °F - 44.6 °F 82% 29.83 in 10.0 mi Calm Calm - N/A   Overcast
4:56 PM 48.2 °F - 44.6 °F 87% 29.82 in 10.0 mi Calm Calm - N/A   Overcast
5:36 PM 50.0 °F - 46.4 °F 87% 29.82 in 10.0 mi Calm Calm - N/A   Overcast
5:56 PM 50.0 °F - 46.4 °F 87% 29.81 in 10.0 mi Calm Calm - N/A   Overcast
6:16 PM 50.0 °F - 46.4 °F 87% 29.81 in 10.0 mi Calm Calm - N/A   Overcast
6:36 PM 50.0 °F - 46.4 °F 87% 29.81 in 10.0 mi Calm Calm - N/A   Overcast
6:56 PM 48.2 °F - 46.4 °F 93% 29.81 in 8.0 mi Calm Calm - N/A   Overcast
7:16 PM 48.2 °F - 46.4 °F 93% 29.81 in 9.0 mi Calm Calm - N/A   Overcast
7:36 PM 48.2 °F - 46.4 °F 93% 29.81 in 10.0 mi Calm Calm - N/A   Overcast
7:56 PM 48.2 °F - 46.4 °F 93% 29.81 in 10.0 mi Calm Calm - N/A   Overcast
8:16 PM 48.2 °F - 46.4 °F 93% 29.81 in 10.0 mi Calm Calm - N/A   Overcast
8:36 PM 48.2 °F - 46.4 °F 93% 29.81 in 8.0 mi Calm Calm - N/A   Overcast
8:56 PM 48.2 °F - 46.4 °F 93% 29.81 in 8.0 mi Calm Calm - N/A   Overcast
9:16 PM 48.2 °F - 46.4 °F 93% 29.81 in 10.0 mi Calm Calm - N/A   Overcast
9:36 PM 48.2 °F - 46.4 °F 93% 29.81 in 10.0 mi Calm Calm - N/A   Overcast
9:56 PM 48.2 °F - 46.4 °F 93% 29.82 in 10.0 mi Calm Calm - N/A   Overcast
10:16 PM 48.2 °F - 46.4 °F 93% 29.83 in 10.0 mi Calm Calm - N/A   Overcast
10:36 PM 48.2 °F - 46.4 °F 93% 29.83 in 10.0 mi Calm Calm - N/A   Overcast
10:56 PM 46.4 °F - 46.4 °F 100% 29.84 in 10.0 mi Calm Calm - N/A   Overcast
11:16 PM 46.4 °F - 46.4 °F 100% 29.85 in 10.0 mi Calm Calm - N/A   Overcast
11:36 PM 46.4 °F - 46.4 °F 100% 29.85 in 10.0 mi Calm Calm - N/A   Overcast
11:56 PM 46.4 °F - 46.4 °F 100% 29.85 in 9.0 mi Calm Calm - N/A   Overcast